FW9094 Weather Reports


time (UTC)temp
F
wind
direction
speed
knots
gust
knots
rain 1hr
in
rain 24hr
in
rain mn
in
humidity
%
barometer
mb
20260505124411 55 45 2.6 5.2 0.00 0.17 0.17 82 1011.0
20260505123402 56 45 2.6 6.1 0.00 0.17 0.17 83 1010.9
20260505122329 55 68 1.7 4.3 0.00 0.17 0.17 84 1010.9
20260505120253 54 45 1.7 6.1 0.00 0.17 0.17 85 1011.2
20260505115200 54 135 0.9 3.5 0.00 0.17 0.17 86 1011.3
20260505114128 54 45 2.6 5.2 0.00 0.17 0.17 85 1011.3
20260505113058 53 68 2.6 6.1 0.00 0.17 0.17 86 1011.3
20260505112040 53 45 2.6 7.8 0.00 0.17 0.17 85 1011.3
20260505111028 53 45 2.6 7.8 0.00 0.17 0.17 86 1011.4
20260505101846 51 45 2.6 7.8 0.00 0.17 0.17 90 1011.9
20260505100821 51 45 2.6 7.0 0.00 0.17 0.17 91 1011.9
20260505095810 51 68 2.6 7.0 0.00 0.17 0.17 92 1011.8
20260505093733 50 45 3.5 7.0 0.00 0.17 0.17 92 1011.8
20260505092714 50 45 2.6 6.1 0.00 0.17 0.17 93 1011.9
20260505091645 50 68 1.7 6.1 0.00 0.17 0.17 94 1011.9
20260505090618 50 68 1.7 5.2 0.00 0.17 0.17 94 1011.9
20260505085551 49 68 1.7 5.2 0.00 0.17 0.17 94 1012.0
20260505084532 49 68 2.6 7.0 0.00 0.17 0.17 95 1012.1
20260505082450 48 68 1.7 4.3 0.00 0.17 0.17 95 1012.0
20260505081444 48 68 1.7 4.3 0.00 0.17 0.17 95 1012.1
20260505080423 48 68 2.6 6.1 0.00 0.17 0.17 95 1012.0
20260505075412 48 45 1.7 4.3 0.00 0.17 0.17 96 1012.0
20260505074347 47 68 1.7 3.5 0.00 0.17 0.17 96 1012.0
20260505073322 47 45 1.7 3.5 0.00 0.17 0.17 96 1012.0
20260505072318 47 68 1.7 5.2 0.00 0.17 0.17 96 1012.0
20260505071259 47 68 1.7 3.5 0.00 0.17 0.17 96 1012.0
20260505064211 46 68 1.7 4.3 0.01 0.17 0.17 96 1012.0
20260505063152 46 45 1.7 4.3 0.02 0.17 0.17 96 1012.1
20260505062131 46 45 1.7 3.5 0.02 0.17 0.17 96 1012.1
20260505061105 46 45 1.7 2.6 0.02 0.17 0.17 96 1012.1
20260505060032 46 45 1.7 3.5 0.02 0.17 0.17 96 1012.0
20260505055031 46 68 1.7 4.3 0.03 0.17 0.17 96 1012.2
20260505054011 46 45 1.7 3.5 0.03 0.16 0.16 96 1012.2
20260505052939 46 68 1.7 3.5 0.04 0.15 0.15 96 1012.2
20260505051927 46 68 1.7 4.3 0.05 0.15 0.15 96 1012.2
20260505050853 46 68 1.7 3.5 0.06 0.14 0.14 96 1012.0
20260505041722 46 68 1.7 5.2 0.06 0.09 0.09 95 1011.9
20260505040658 46 45 2.6 5.2 0.05 0.08 0.08 95 1012.0
20260505035658 46 45 2.6 5.2 0.03 0.06 0.06 95 1011.9
20260505034635 46 45 2.6 6.1 0.02 0.05 0.05 95 1012.0
20260505033606 46 45 2.6 6.1 0.02 0.04 0.04 95 1012.1
20260505032534 46 68 1.7 4.3 0.02 0.04 0.04 95 1012.2
20260505030444 47 45 2.6 5.2 0.02 0.03 0.03 95 1012.2
20260505025444 47 68 1.7 5.2 0.02 0.03 0.03 95 1012.2
20260505024420 47 45 2.6 5.2 0.01 0.02 0.02 94 1012.3
20260505023401 47 68 1.7 3.5 0.01 0.02 0.02 94 1012.4
20260505022326 47 68 2.6 4.3 0.01 0.02 0.02 94 1012.4
20260505021252 47 68 1.7 3.5 0.00 0.02 0.02 94 1012.5
20260505020220 47 45 1.7 3.5 0.00 0.02 0.02 94 1012.6
20260505015200 47 90 0.9 3.5 0.01 0.02 0.02 93 1012.6
20260505014135 47 90 1.7 3.5 0.01 0.02 0.02 93 1012.6
20260505013119 48 68 1.7 3.5 0.02 0.02 0.02 93 1012.6
20260505012102 48 45 1.7 4.3 0.02 0.02 0.02 92 1012.6
20260505011044 48 68 1.7 3.5 0.02 0.02 0.02 92 1012.7
20260505010027 48 68 2.6 7.0 0.01 0.01 0.01 91 1012.7
20260505004955 49 68 2.6 5.2 0.01 0.01 0.01 90 1012.9
20260505003938 49 90 0.9 4.3 0.00 0.00 0.00 89 1013.0
20260505002914 50 68 1.7 4.3 0.00 0.00 0.00 88 1013.0
20260505001842 50 68 1.7 3.5 0.00 0.00 0.00 87 1013.0
20260505000812 50 68 0.9 3.5 0.00 0.00 0.00 87 1013.1
20260504235749 50 68 0.9 4.3 0.00 0.00 0.00 87 1013.2
20260504234740 50 45 1.7 4.3 0.00 0.00 0.00 86 1013.2
20260504233725 51 68 0.9 3.5 0.00 0.00 0.00 87 1013.3
20260504232725 51 68 1.7 3.5 0.00 0.00 0.00 87 1013.4
20260504230623 51 45 1.7 6.1 0.00 0.00 0.00 88 1013.3
20260504225557 51 68 1.7 5.2 0.00 0.00 0.00 88 1013.4
20260504223510 51 68 1.7 2.6 0.00 0.00 0.00 87 1013.3
20260504222510 51 68 1.7 3.5 0.00 0.00 0.00 88 1013.5
20260504221452 51 68 0.9 3.5 0.00 0.00 0.00 88 1013.4
20260504220418 51 135 0.9 3.5 0.00 0.00 0.00 88 1013.5
20260504215346 51 90 0.9 2.6 0.00 0.00 0.00 88 1013.6
20260504214328 51 90 0.0 2.6 0.00 0.00 0.00 88 1013.7
20260504213255 51 90 0.0 1.7 0.00 0.00 0.00 89 1013.6
20260504212221 51 90 0.0 0.0 0.00 0.00 0.00 90 1013.7
20260504211153 51 90 0.0 0.9 0.00 0.00 0.00 89 1013.6
20260504210151 51 90 0.0 0.9 0.00 0.00 0.00 89 1013.6
20260504205128 51 90 0.0 0.0 0.00 0.00 0.00 90 1013.5
20260504204056 51 90 0.0 0.0 0.00 0.00 0.00 89 1013.5
20260504203030 52 90 0.0 0.0 0.00 0.00 0.00 88 1013.5
20260504201958 52 90 0.0 0.9 0.00 0.00 0.00 88 1013.6
20260504200955 53 90 0.0 0.9 0.00 0.00 0.00 88 1013.7
20260504194915 53 90 0.0 1.7 0.00 0.00 0.00 86 1013.6
20260504192842 54 68 0.9 2.6 0.00 0.00 0.00 85 1013.5
20260504191810 55 68 0.9 2.6 0.00 0.00 0.00 84 1013.5
20260504190742 55 68 1.7 4.3 0.00 0.00 0.00 83 1013.4
20260504185734 56 68 1.7 4.3 0.00 0.00 0.00 82 1013.3
20260504183645 56 45 1.7 4.3 0.00 0.00 0.00 81 1013.3
20260504180557 58 68 2.6 5.2 0.00 0.00 0.00 78 1013.1
20260504175551 58 68 2.6 5.2 0.00 0.00 0.00 77 1013.0
20260504174534 58 113 1.7 5.2 0.00 0.00 0.00 77 1013.0
20260504173511 58 68 1.7 7.8 0.00 0.00 0.00 76 1013.1
20260504172453 59 45 3.5 7.8 0.00 0.00 0.00 76 1013.0
20260504170422 59 68 2.6 5.2 0.00 0.00 0.00 76 1013.1
20260504160315 60 45 2.6 8.7 0.00 0.00 0.00 77 1013.1
20260504151121 61 45 3.5 9.6 0.00 0.00 0.00 75 1013.2
20260504150119 62 45 3.5 8.7 0.00 0.00 0.00 75 1013.2